Location: Anumalkud?ru
(16.4847°N, 80.6636°E)
Time: 23:31:03
(UTC+00:00)

Cosmos 1707 Rocket - Pass Details

Date: 11 April 2026
Orbit: 597 x 625 km, 82.5° (Epoch: 9 May)

Event Time Altitude Azimuth Distance (km) Brightness Sun altitude
Rises 13:44:28 0° 11° (NNE) 2,834 7.0 -13.2°
Reaches altitude 10° 13:46:54 10° 23° (NNE) 1,930 6.0 -13.7°
Maximum altitude 13:50:36 29° 83° (E) 1,111 4.3 -14.6°
Enters shadow 13:51:45 25° 112° (ESE) 1,216 4.4 -14.9°
